SCP
-0 -0 -0 -0 -0 -0 -0 0 0 0 0 0 0 0 0 0 0 0 0 0 0 0 0 0 0 0 0 0 0 0 0 0 0 0 0 0 0 0 0 0 0 0 0 0 0 0 0
-0 -0 -0 -0 -0 0 0 0 0 0 0 0 0 0 0 0 0 0 0 0 0 0 0 0 0 0 0 0 0 0 0 0 0 0 0 0 0 0 0 0 0 0 0 0 0 0 0
0 -0 0 0 0 0 0 0 0 0 0 0 0 0 0 0 0 0 0 0 0 0 0 0 0 0 0 0 0 0 0 0 0 0 0 0 0 0 0 0 0 0 0 0 0 0 0
0 0 0 0 0 0 0 0 0 0 0 0 0 0 0 0 0 0 0 0 0 -0 -0 -0 0 0 -0 0 0 0 0 0 0 0 0 0 0 0 0 0 0 0 0 0 0 0 0
-0 -0 0 0 0 0 0 0 0 0 0 0 0 0 0 0 0 0 0 -0 -0 -0 0 -0 -0 0 0 0 0 0 0 0 0 0 0 0 0 0 0 0 0 0 0 0 0 0 0
-0 -0 -0 -0 0 0 0 0 0 0 0 0 0 0 0 0 0 0 -0 -0 -0 -0 -0 -0 -0 0 -0 0 0 0 0 0 0 0 0 0 0 0 0 0 0 0 0 0 0 0 0
-0 -0 -0 -0 -0 0 0 0 0 0 0 0 0 0 0 0 0 0 -0 -0 -0 -0 -0 -0 -0 -0 0 0 0 0 0 0 0 0 0 0 0 0 0 0 0 0 0 0 0 0 0
-0 -0 -0 -0 -0 0 0 0 0 0 0 0 0 0 0 0 0 0 0 0 0 0 0 -0 -0 -0 0 0 0 0 0 0 0 0 0 0 0 0 0 0 0 0 0 0 0 0 0
-0 -0 -0 -0 -0 0 0 0 0 0 0 0 0 0 0 0 0 0 0 0 0 0 -0 -0 -0 -0 -0 0 -0 0 0 0 0 0 0 0 0 0 0 0 0 0 0 0 0 0 0
-0 -0 -0 -0 -0 0 0 0 0 0 0 0 0 0 0 0 0 0 0 0 0 0 -0 -0 -0 -0 -0 0 0 0 0 0 0 0 0 0 0 0 0 0 0 0 0 0 0 0 0
-0 -0 -0 -0 -0 0 0 0 0 0 0 0 0 -0 0 0 0 0 0 0 0 0 0 -0 -0 0 0 -0 -0 0 0 0 0 0 0 0 0 0 0 0 0 0 0 0 0 0 0
-0 -0 -0 -0 -0 -0 0 0 0 0 0 0 0 -0 0 0 0 0 0 0 0 0 0 0 0 -0 0 0 -0 -0 0 0 0 0 0 0 0 0 0 0 0 0 0 0 0 0 0
-0 -0 -0 -0 0 0 0 0 0 0 0 0 0 -0 0 0 0 0 0 0 0 0 0 0 0 0 0 0 0 -0 -0 0 0 0 0 0 0 0 0 0 0 0 0 0 0 0 0
-0 0 0 0 0 0 0 0 0 0 0 0 -0 0 0 0 0 0 0 0 0 0 0 0 0 0 0 -0 0 0 -0 0 0 0 0 0 0 0 0 0 0 0 0 0 0 0 0
0 0 0 0 0 0 0 0 0 0 0 -0 0 0 0 0 0 0 0 0 0 0 0 0 0 0 0 0 -0 -0 -0 -0 0 0 0 0 0 0 0 0 0 0 0 0 0 0 0
0 0 0 0 0 0 0 0 0 0 0 0 0 0 0 -0 0 0 0 0 0 0 0 0 0 0 0 -0 -0 0 0 0 0 0 0 0 0 0 0 0 0 0 0 0 0 0 0
0 0 0 0 0 0 0 0 0 0 0 0 0 0 0 -0 0 0 0 0 0 0 0 0 0 0 0 0 -0 -0 0 0 0 0 0 0 0 0 0 0 0 0 0 0 0 0 0
0 0 0 0 0 0 0 0 0 0 0 0 0 0 0 0 0 0 0 0 0 0 0 0 0 0 0 0 0 0 -0 0 0 -0 0 0 0 0 0 0 0 -0 0 -0 0 0 0
0 0 0 0 0 0 0 0 0 0 0 0 0 0 0 0 0 0 0 0 0 0 0 0 0 0 0 0 0 0 0 0 0 0 0 0 0 0 0 -0 0 0 0 -0 0 0 0
0 0 0 0 0 0 0 0 0 0 0 0 0 0 0 0 0 0 0 0 0 0 0 0 0 0 0 0 0 0 0 0 -0 -0 -0 -0 0 0 0 0 0 0 0 0 0 0 0
0 0 0 0 0 0 0 0 0 0 0 0 0 0 0 0 0 0 0 0 0 0 0 0 0 0 0 0 -0 0 -0 0 -0 0 0 0 0 0 0 0 0 0 0 0 0 0 0
0 0 0 0 0 0 0 0 0 0 0 0 0 0 0 0 0 0 0 0 0 0 0 0 0 0 0 0 0 -0 0 0 -0 -0 0 0 0 0 0 0 0 0 0 0 0 0 0
0 0 0 0 0 0 0 0 0 0 0 0 0 0 0 0 0 0 0 0 0 0 0 0 0 0 0 0 0 0 -0 -0 -0 -0 0 0 0 0 -0 0 0 0 0 0 0 0 0
0 0 0 0 0 0 0 0 0 0 0 0 0 0 0 0 0 0 0 0 0 0 0 0 0 0 0 0 0 0 0 -0 -0 -0 0 0 0 0 0 0 -0 -0 0 0 0 0 -0
0 0 0 0 0 0 0 0 0 0 0 0 0 0 0 0 0 0 0 0 0 0 0 0 0 0 0 0 0 0 0 0 0 0 0 0 0 0 0 0 -0 -0 0 -0 -0 -0 0
0 0 0 0 0 0 0 0 0 0 0 0 0 0 0 0 0 0 0 0 0 0 0 0 0 0 0 0 0 0 0 0 0 -0 0 0 0 0 0 0 -0 0 0 0 0 -0 -0
0 0 0 0 0 0 0 0 0 0 0 0 0 0 0 0 0 0 0 0 0 0 0 0 0 0 0 0 0 0 0 0 0 0 0 0 0 0 0 0 0 0 0 0 0 0 0
0 0 0 0 0 0 0 0 0 0 0 0 0 0 0 0 0 0 0 0 0 0 0 0 0 0 0 0 0 0 0 0 0 0 0 -0 0 0 0 0 0 0 0 0 0 0 0
0 0 0 0 0 0 0 0 0 0 0 0 0 0 0 0 0 0 0 0 0 0 0 0 0 0 0 0 0 0 0 0 0 0 0 -0 -0 -0 -0 0 0 -0 0 0 -0 0 0
Wind_Speed_500mb
3 9 12 14 15 18 20 21 21 21 23 25 26 27 29 31 32 35 38 39 38 36 36 36 34 38 30 21 36 14 29 24 9 1 14 31 42 47 43 36 44 45 40 33 42 40 45
11 11 13 15 17 17 17 18 21 23 26 28 29 31 33 36 39 39 41 39 41 41 38 34 32 33 26 42 20 30 41 42 20 16 18 20 22 49 28 49 42 21 50 51 42 39 44
11 12 14 15 17 20 24 25 26 26 28 30 32 34 36 38 40 44 48 49 49 43 41 34 28 28 33 48 40 43 33 49 28 24 22 20 22 29 28 23 53 39 33 24 38 41 30
10 12 15 18 22 25 26 26 28 26 28 30 33 35 37 40 43 47 49 54 52 44 36 29 26 25 31 35 41 46 33 49 40 35 32 24 16 27 28 30 16 37 34 39 43 41 28
18 18 19 19 20 21 21 22 24 23 24 27 30 33 35 39 43 48 50 46 40 32 24 23 22 21 43 19 26 18 22 36 35 36 36 29 24 36 30 30 30 33 40 49 44 27 45
11 14 16 17 17 18 19 22 23 25 25 28 31 33 36 41 46 49 43 34 25 19 16 9 11 17 21 14 24 26 25 23 26 31 32 36 29 27 33 33 45 49 50 42 38 31 34
15 15 15 16 17 18 19 20 23 24 25 26 30 32 36 40 45 48 35 22 16 5 29 17 38 42 51 40 45 39 21 17 25 40 43 48 32 39 59 51 45 37 33 37 38 26 26
15 16 17 18 19 19 20 20 22 23 23 24 28 31 33 37 30 34 33 17 15 12 18 17 24 29 30 25 31 20 13 19 26 40 46 32 48 63 47 42 42 44 35 33 24 15 19
16 18 19 18 18 20 21 20 20 20 20 21 25 29 31 35 23 29 33 29 19 9 10 12 16 17 22 29 15 15 12 14 23 35 52 52 49 49 46 47 44 46 47 34 25 21 25
18 19 20 20 20 20 18 19 17 16 17 18 22 27 30 31 16 28 16 29 15 14 8 15 20 9 20 20 9 30 21 21 16 26 37 45 54 19 54 56 48 50 50 40 39 30 31
18 20 21 22 22 20 16 13 13 13 15 15 19 25 27 25 22 14 28 37 12 6 8 27 19 19 14 13 36 6 12 18 28 9 19 31 24 48 36 58 53 50 33 34 35 37 32
17 19 19 21 20 17 11 8 9 10 13 13 16 22 25 23 23 28 31 31 3 8 9 15 17 25 33 21 33 35 2 7 12 25 26 29 13 12 50 33 35 36 28 29 27 25 32
16 17 18 19 16 12 6 4 6 8 11 11 14 19 18 22 20 29 31 8 6 7 16 20 24 31 25 25 23 23 21 17 6 16 31 30 28 22 9 28 33 34 36 14 19 22 39
13 14 15 15 12 8 4 3 6 8 10 10 13 16 14 19 25 27 20 5 8 4 10 21 23 24 17 28 19 28 18 16 25 10 13 19 21 28 12 22 38 52 44 21 34 30 37
12 12 12 12 9 6 4 3 4 8 9 10 12 14 10 17 21 23 8 4 4 6 13 19 23 17 17 26 15 8 11 18 20 26 11 10 9 6 5 12 7 43 46 49 41 32 20
11 10 9 9 7 5 4 3 4 8 9 11 11 10 5 14 21 12 2 6 3 6 16 13 14 12 22 27 22 20 13 15 18 18 16 11 12 7 4 7 16 16 20 35 27 35 45
15 10 9 8 6 6 4 3 5 7 8 10 9 4 7 17 12 4 3 2 5 6 12 8 12 13 16 21 18 11 15 13 21 28 12 16 3 6 11 9 12 7 14 8 8 25 18
19 12 10 9 7 6 5 4 6 7 7 7 4 3 10 9 1 4 2 2 5 5 3 4 9 12 15 17 12 13 11 12 19 35 15 11 9 10 12 10 10 7 7 11 6 6 15
25 15 15 11 9 7 7 6 5 5 4 5 4 4 8 6 2 3 3 2 6 6 4 4 5 5 12 13 8 14 16 18 21 29 13 12 4 9 13 9 9 8 5 5 7 3 6
30 24 15 15 11 8 7 6 5 5 4 2 1 1 6 8 3 1 0 3 5 7 10 6 9 8 12 12 8 17 17 8 35 28 19 12 6 9 15 20 15 18 14 10 4 7 11
33 29 21 19 16 11 9 8 7 6 6 3 3 2 1 1 2 3 4 5 7 4 7 9 5 9 10 5 19 9 19 30 20 5 8 5 10 19 26 29 29 29 30 29 31 34 20
30 34 24 20 20 18 12 10 10 9 9 7 4 6 3 5 6 8 4 8 11 6 6 9 13 8 10 19 22 30 30 27 17 13 5 8 11 19 31 32 28 34 41 42 40 41 40
32 34 33 24 24 21 19 15 12 12 13 8 12 8 3 4 5 7 7 8 6 3 11 13 15 17 23 24 25 30 32 37 35 34 31 10 9 12 26 22 22 26 33 36 41 40 35
37 33 36 31 27 25 21 20 18 16 17 14 13 9 6 6 10 11 10 16 19 21 23 31 30 29 17 27 35 37 42 46 46 44 40 20 19 14 17 21 22 19 13 20 26 31 34
40 36 35 37 34 27 31 23 20 22 20 21 18 15 8 10 16 21 25 26 28 26 26 32 34 29 24 16 11 13 9 7 9 19 20 31 24 12 10 19 33 40 26 23 28 37 23
40 39 36 37 37 39 31 32 29 25 24 24 26 24 16 6 14 28 21 17 18 18 21 28 12 6 10 10 6 10 10 11 6 5 3 14 25 16 11 15 18 3 9 4 12 30 26
42 39 38 35 33 34 39 37 37 37 32 27 26 25 21 15 35 38 23 18 19 13 14 23 13 8 11 7 11 15 18 12 11 15 9 7 10 27 25 23 20 19 22 26 23 16 21
44 40 37 37 35 32 31 38 36 37 39 38 37 35 33 22 43 47 40 35 32 25 18 11 16 13 9 9 6 8 9 11 14 23 18 22 11 11 15 16 25 7 13 28 30 48 54
47 42 38 35 33 33 32 30 28 31 33 33 33 29 36 39 31 23 25 41 56 54 45 25 19 7 5 8 7 7 12 10 24 28 31 31 32 24 24 21 34 53 59 70 71 71 72
Wind_Direction_500mb
27 49 49 42 36 31 27 25 21 18 15 10 5 1 356 352 348 343 339 338 337 331 321 312 307 304 318 264 244 265 226 243 317 240 200 219 213 212 220 226 230 229 245 226 241 244 249
52 43 38 33 25 21 18 16 14 10 7 4 1 358 356 351 346 340 335 328 327 326 319 312 303 297 289 270 263 259 247 252 271 254 245 221 225 219 243 230 223 220 233 241 234 233 249
34 29 25 24 21 21 18 12 4 1 0 358 357 356 353 349 345 339 334 328 321 315 314 307 298 290 270 260 283 284 266 248 256 248 238 232 237 205 219 233 232 243 239 230 232 234 240
30 30 28 24 20 17 11 3 357 355 353 351 352 352 351 346 342 337 331 326 317 302 299 292 289 282 269 277 280 276 269 256 253 238 233 234 243 235 227 232 214 222 232 240 230 218 219
18 9 6 3 2 1 356 358 355 349 348 348 349 351 348 346 341 334 332 334 328 314 290 280 287 273 284 285 292 283 267 251 244 239 228 227 233 227 205 225 217 213 229 222 239 211 213
338 339 346 347 346 341 342 345 349 348 346 349 351 352 351 349 343 338 342 344 2 18 349 303 270 281 250 321 316 299 304 243 234 213 203 205 212 217 217 208 216 215 227 244 225 213 219
337 343 346 342 339 336 335 336 335 340 344 348 352 352 353 350 349 357 4 5 8 331 356 323 303 294 292 306 296 286 270 274 215 212 205 198 201 214 214 216 233 241 246 234 235 216 246
332 333 335 333 335 335 331 326 327 332 340 347 351 352 353 352 360 6 14 35 5 309 310 345 326 311 306 306 287 293 215 227 204 210 207 193 217 217 224 223 228 238 232 240 239 212 237
323 328 330 329 324 320 320 318 314 325 332 343 348 349 353 351 360 15 28 11 346 343 266 288 326 305 329 324 268 308 226 236 240 215 206 211 222 223 220 226 223 226 228 223 234 188 232
318 326 325 323 321 314 305 305 306 318 324 340 346 348 353 356 15 0 12 1 344 337 284 26 353 336 326 347 266 314 246 249 226 227 212 229 233 205 216 220 216 225 222 241 241 239 247
316 326 328 327 325 319 304 293 298 314 320 336 344 347 355 357 343 350 336 345 328 280 345 341 340 328 308 47 328 172 281 249 248 228 213 206 226 240 221 220 215 234 232 216 237 240 252
315 326 325 335 337 331 315 291 293 316 316 331 342 344 351 346 344 340 337 339 318 243 19 340 345 345 0 22 18 357 31 218 278 259 218 263 312 288 228 221 229 223 229 213 221 237 240
313 324 334 342 348 348 343 303 299 315 316 328 338 343 351 347 340 340 339 329 260 18 333 344 340 339 353 0 30 11 359 61 359 252 229 217 238 240 280 241 200 196 190 182 210 217 236
308 325 339 345 352 359 5 336 322 322 319 324 333 339 348 343 341 345 347 278 53 303 320 325 331 324 2 3 15 44 22 36 22 339 301 231 208 205 177 229 220 211 194 207 211 218 235
302 315 334 344 352 357 347 332 324 321 325 324 332 332 325 344 345 346 328 32 48 312 342 326 318 342 3 8 334 350 41 30 11 21 348 334 211 56 84 325 328 207 223 224 253 264 266
279 294 320 332 337 337 324 315 321 324 330 330 335 322 273 340 347 357 31 94 220 305 324 314 340 359 348 355 360 356 44 19 359 13 347 3 286 48 349 220 257 234 270 218 227 234 240
245 266 294 306 314 316 306 299 312 321 331 336 341 286 283 331 354 12 67 133 239 293 318 309 331 320 340 349 342 6 13 37 14 8 354 340 327 314 280 31 15 336 240 247 278 227 221
228 260 262 282 290 292 280 276 290 298 326 349 332 268 322 353 290 31 138 302 320 283 282 288 292 307 328 339 331 350 343 12 354 350 350 11 319 312 354 352 284 37 5 21 329 82 224
223 234 245 258 273 277 275 265 266 260 301 351 319 289 340 60 169 130 272 266 264 274 307 295 288 323 323 329 328 342 340 360 3 345 342 335 55 302 158 174 137 42 26 33 335 321 258
224 225 241 241 253 261 262 255 234 225 242 14 15 225 26 59 77 83 340 242 279 239 267 270 288 268 310 323 318 299 301 332 328 328 328 256 281 292 302 325 313 295 277 262 156 262 269
225 224 229 234 239 247 247 241 229 211 208 143 105 142 107 143 172 254 275 259 269 251 242 258 244 255 319 294 311 306 323 317 327 352 329 354 282 298 292 298 297 287 278 267 251 242 259
230 219 220 232 236 236 238 235 230 214 194 187 171 170 205 264 255 245 195 233 247 266 239 272 258 279 285 296 296 298 307 304 301 299 339 3 281 301 289 283 280 276 267 264 265 260 258
231 229 212 224 229 234 233 232 227 215 198 198 195 201 211 188 219 248 241 242 247 247 290 268 292 296 286 299 305 294 288 281 272 277 278 275 270 272 279 288 303 283 265 263 265 263 255
228 231 214 217 224 225 231 231 226 218 210 212 195 172 191 250 233 240 259 262 267 277 278 277 282 279 272 301 293 284 273 266 264 260 253 246 249 256 280 297 266 253 314 292 288 274 258
228 226 227 216 225 225 224 225 232 227 224 219 223 198 202 255 259 261 263 269 275 272 271 281 281 277 284 279 293 295 277 251 253 246 249 232 237 256 257 259 276 285 277 265 245 272 299
227 225 224 225 223 221 220 223 225 231 234 235 236 230 225 293 247 266 267 275 282 284 277 267 277 281 248 268 248 272 296 317 281 276 310 228 220 237 250 272 277 315 322 311 325 287 272
228 227 222 220 228 221 217 221 222 226 231 230 246 234 233 245 264 253 253 265 260 265 274 285 293 273 224 227 253 273 265 267 273 267 219 203 219 236 249 257 263 283 279 274 260 259 323
222 223 226 222 221 226 223 222 225 222 226 230 239 243 239 256 264 260 251 249 253 255 255 268 305 212 229 231 249 235 250 248 273 270 280 285 267 243 238 255 268 308 266 238 270 301 306
214 218 223 226 224 222 221 222 222 219 216 221 235 243 247 254 254 268 236 241 242 244 252 241 236 239 218 250 230 287 262 261 280 281 284 273 267 273 280 272 300 300 296 287 286 287 291
Wind_Speed_850mb
3 9 12 14 15 18 20 21 21 21 23 25 26 27 29 31 32 35 38 39 38 36 36 36 34 38 30 21 36 14 29 24 9 1 14 31 42 47 43 36 44 45 40 33 42 40 45
11 11 13 15 17 17 17 18 21 23 26 28 29 31 33 36 39 39 41 39 41 41 38 34 32 33 26 42 20 30 41 42 20 16 18 20 22 49 28 49 42 21 50 51 42 39 44
11 12 14 15 17 20 24 25 26 26 28 30 32 34 36 38 40 44 48 49 49 43 41 34 28 28 33 48 40 43 33 49 28 24 22 20 22 29 28 23 53 39 33 24 38 41 30
10 12 15 18 22 25 26 26 28 26 28 30 33 35 37 40 43 47 49 54 52 44 36 29 26 25 31 35 41 46 33 49 40 35 32 24 16 27 28 30 16 37 34 39 43 41 28
18 18 19 19 20 21 21 22 24 23 24 27 30 33 35 39 43 48 50 46 40 32 24 23 22 21 43 19 26 18 22 36 35 36 36 29 24 36 30 30 30 33 40 49 44 27 45
11 14 16 17 17 18 19 22 23 25 25 28 31 33 36 41 46 49 43 34 25 19 16 9 11 17 21 14 24 26 25 23 26 31 32 36 29 27 33 33 45 49 50 42 38 31 34
15 15 15 16 17 18 19 20 23 24 25 26 30 32 36 40 45 48 35 22 16 5 29 17 38 42 51 40 45 39 21 17 25 40 43 48 32 39 59 51 45 37 33 37 38 26 26
15 16 17 18 19 19 20 20 22 23 23 24 28 31 33 37 30 34 33 17 15 12 18 17 24 29 30 25 31 20 13 19 26 40 46 32 48 63 47 42 42 44 35 33 24 15 19
16 18 19 18 18 20 21 20 20 20 20 21 25 29 31 35 23 29 33 29 19 9 10 12 16 17 22 29 15 15 12 14 23 35 52 52 49 49 46 47 44 46 47 34 25 21 25
18 19 20 20 20 20 18 19 17 16 17 18 22 27 30 31 16 28 16 29 15 14 8 15 20 9 20 20 9 30 21 21 16 26 37 45 54 19 54 56 48 50 50 40 39 30 31
18 20 21 22 22 20 16 13 13 13 15 15 19 25 27 25 22 14 28 37 12 6 8 27 19 19 14 13 36 6 12 18 28 9 19 31 24 48 36 58 53 50 33 34 35 37 32
17 19 19 21 20 17 11 8 9 10 13 13 16 22 25 23 23 28 31 31 3 8 9 15 17 25 33 21 33 35 2 7 12 25 26 29 13 12 50 33 35 36 28 29 27 25 32
16 17 18 19 16 12 6 4 6 8 11 11 14 19 18 22 20 29 31 8 6 7 16 20 24 31 25 25 23 23 21 17 6 16 31 30 28 22 9 28 33 34 36 14 19 22 39
13 14 15 15 12 8 4 3 6 8 10 10 13 16 14 19 25 27 20 5 8 4 10 21 23 24 17 28 19 28 18 16 25 10 13 19 21 28 12 22 38 52 44 21 34 30 37
12 12 12 12 9 6 4 3 4 8 9 10 12 14 10 17 21 23 8 4 4 6 13 19 23 17 17 26 15 8 11 18 20 26 11 10 9 6 5 12 7 43 46 49 41 32 20
11 10 9 9 7 5 4 3 4 8 9 11 11 10 5 14 21 12 2 6 3 6 16 13 14 12 22 27 22 20 13 15 18 18 16 11 12 7 4 7 16 16 20 35 27 35 45
15 10 9 8 6 6 4 3 5 7 8 10 9 4 7 17 12 4 3 2 5 6 12 8 12 13 16 21 18 11 15 13 21 28 12 16 3 6 11 9 12 7 14 8 8 25 18
19 12 10 9 7 6 5 4 6 7 7 7 4 3 10 9 1 4 2 2 5 5 3 4 9 12 15 17 12 13 11 12 19 35 15 11 9 10 12 10 10 7 7 11 6 6 15
25 15 15 11 9 7 7 6 5 5 4 5 4 4 8 6 2 3 3 2 6 6 4 4 5 5 12 13 8 14 16 18 21 29 13 12 4 9 13 9 9 8 5 5 7 3 6
30 24 15 15 11 8 7 6 5 5 4 2 1 1 6 8 3 1 0 3 5 7 10 6 9 8 12 12 8 17 17 8 35 28 19 12 6 9 15 20 15 18 14 10 4 7 11
33 29 21 19 16 11 9 8 7 6 6 3 3 2 1 1 2 3 4 5 7 4 7 9 5 9 10 5 19 9 19 30 20 5 8 5 10 19 26 29 29 29 30 29 31 34 20
30 34 24 20 20 18 12 10 10 9 9 7 4 6 3 5 6 8 4 8 11 6 6 9 13 8 10 19 22 30 30 27 17 13 5 8 11 19 31 32 28 34 41 42 40 41 40
32 34 33 24 24 21 19 15 12 12 13 8 12 8 3 4 5 7 7 8 6 3 11 13 15 17 23 24 25 30 32 37 35 34 31 10 9 12 26 22 22 26 33 36 41 40 35
37 33 36 31 27 25 21 20 18 16 17 14 13 9 6 6 10 11 10 16 19 21 23 31 30 29 17 27 35 37 42 46 46 44 40 20 19 14 17 21 22 19 13 20 26 31 34
40 36 35 37 34 27 31 23 20 22 20 21 18 15 8 10 16 21 25 26 28 26 26 32 34 29 24 16 11 13 9 7 9 19 20 31 24 12 10 19 33 40 26 23 28 37 23
40 39 36 37 37 39 31 32 29 25 24 24 26 24 16 6 14 28 21 17 18 18 21 28 12 6 10 10 6 10 10 11 6 5 3 14 25 16 11 15 18 3 9 4 12 30 26
42 39 38 35 33 34 39 37 37 37 32 27 26 25 21 15 35 38 23 18 19 13 14 23 13 8 11 7 11 15 18 12 11 15 9 7 10 27 25 23 20 19 22 26 23 16 21
44 40 37 37 35 32 31 38 36 37 39 38 37 35 33 22 43 47 40 35 32 25 18 11 16 13 9 9 6 8 9 11 14 23 18 22 11 11 15 16 25 7 13 28 30 48 54
47 42 38 35 33 33 32 30 28 31 33 33 33 29 36 39 31 23 25 41 56 54 45 25 19 7 5 8 7 7 12 10 24 28 31 31 32 24 24 21 34 53 59 70 71 71 72
Wind_Direction_850mb
27 49 49 42 36 31 27 25 21 18 15 10 5 1 356 352 348 343 339 338 337 331 321 312 307 304 318 264 244 265 226 243 317 240 200 219 213 212 220 226 230 229 245 226 241 244 249
52 43 38 33 25 21 18 16 14 10 7 4 1 358 356 351 346 340 335 328 327 326 319 312 303 297 289 270 263 259 247 252 271 254 245 221 225 219 243 230 223 220 233 241 234 233 249
34 29 25 24 21 21 18 12 4 1 0 358 357 356 353 349 345 339 334 328 321 315 314 307 298 290 270 260 283 284 266 248 256 248 238 232 237 205 219 233 232 243 239 230 232 234 240
30 30 28 24 20 17 11 3 357 355 353 351 352 352 351 346 342 337 331 326 317 302 299 292 289 282 269 277 280 276 269 256 253 238 233 234 243 235 227 232 214 222 232 240 230 218 219
18 9 6 3 2 1 356 358 355 349 348 348 349 351 348 346 341 334 332 334 328 314 290 280 287 273 284 285 292 283 267 251 244 239 228 227 233 227 205 225 217 213 229 222 239 211 213
338 339 346 347 346 341 342 345 349 348 346 349 351 352 351 349 343 338 342 344 2 18 349 303 270 281 250 321 316 299 304 243 234 213 203 205 212 217 217 208 216 215 227 244 225 213 219
337 343 346 342 339 336 335 336 335 340 344 348 352 352 353 350 349 357 4 5 8 331 356 323 303 294 292 306 296 286 270 274 215 212 205 198 201 214 214 216 233 241 246 234 235 216 246
332 333 335 333 335 335 331 326 327 332 340 347 351 352 353 352 360 6 14 35 5 309 310 345 326 311 306 306 287 293 215 227 204 210 207 193 217 217 224 223 228 238 232 240 239 212 237
323 328 330 329 324 320 320 318 314 325 332 343 348 349 353 351 360 15 28 11 346 343 266 288 326 305 329 324 268 308 226 236 240 215 206 211 222 223 220 226 223 226 228 223 234 188 232
318 326 325 323 321 314 305 305 306 318 324 340 346 348 353 356 15 0 12 1 344 337 284 26 353 336 326 347 266 314 246 249 226 227 212 229 233 205 216 220 216 225 222 241 241 239 247
316 326 328 327 325 319 304 293 298 314 320 336 344 347 355 357 343 350 336 345 328 280 345 341 340 328 308 47 328 172 281 249 248 228 213 206 226 240 221 220 215 234 232 216 237 240 252
315 326 325 335 337 331 315 291 293 316 316 331 342 344 351 346 344 340 337 339 318 243 19 340 345 345 0 22 18 357 31 218 278 259 218 263 312 288 228 221 229 223 229 213 221 237 240
313 324 334 342 348 348 343 303 299 315 316 328 338 343 351 347 340 340 339 329 260 18 333 344 340 339 353 0 30 11 359 61 359 252 229 217 238 240 280 241 200 196 190 182 210 217 236
308 325 339 345 352 359 5 336 322 322 319 324 333 339 348 343 341 345 347 278 53 303 320 325 331 324 2 3 15 44 22 36 22 339 301 231 208 205 177 229 220 211 194 207 211 218 235
302 315 334 344 352 357 347 332 324 321 325 324 332 332 325 344 345 346 328 32 48 312 342 326 318 342 3 8 334 350 41 30 11 21 348 334 211 56 84 325 328 207 223 224 253 264 266
279 294 320 332 337 337 324 315 321 324 330 330 335 322 273 340 347 357 31 94 220 305 324 314 340 359 348 355 360 356 44 19 359 13 347 3 286 48 349 220 257 234 270 218 227 234 240
245 266 294 306 314 316 306 299 312 321 331 336 341 286 283 331 354 12 67 133 239 293 318 309 331 320 340 349 342 6 13 37 14 8 354 340 327 314 280 31 15 336 240 247 278 227 221
228 260 262 282 290 292 280 276 290 298 326 349 332 268 322 353 290 31 138 302 320 283 282 288 292 307 328 339 331 350 343 12 354 350 350 11 319 312 354 352 284 37 5 21 329 82 224
223 234 245 258 273 277 275 265 266 260 301 351 319 289 340 60 169 130 272 266 264 274 307 295 288 323 323 329 328 342 340 360 3 345 342 335 55 302 158 174 137 42 26 33 335 321 258
224 225 241 241 253 261 262 255 234 225 242 14 15 225 26 59 77 83 340 242 279 239 267 270 288 268 310 323 318 299 301 332 328 328 328 256 281 292 302 325 313 295 277 262 156 262 269
225 224 229 234 239 247 247 241 229 211 208 143 105 142 107 143 172 254 275 259 269 251 242 258 244 255 319 294 311 306 323 317 327 352 329 354 282 298 292 298 297 287 278 267 251 242 259
230 219 220 232 236 236 238 235 230 214 194 187 171 170 205 264 255 245 195 233 247 266 239 272 258 279 285 296 296 298 307 304 301 299 339 3 281 301 289 283 280 276 267 264 265 260 258
231 229 212 224 229 234 233 232 227 215 198 198 195 201 211 188 219 248 241 242 247 247 290 268 292 296 286 299 305 294 288 281 272 277 278 275 270 272 279 288 303 283 265 263 265 263 255
228 231 214 217 224 225 231 231 226 218 210 212 195 172 191 250 233 240 259 262 267 277 278 277 282 279 272 301 293 284 273 266 264 260 253 246 249 256 280 297 266 253 314 292 288 274 258
228 226 227 216 225 225 224 225 232 227 224 219 223 198 202 255 259 261 263 269 275 272 271 281 281 277 284 279 293 295 277 251 253 246 249 232 237 256 257 259 276 285 277 265 245 272 299
227 225 224 225 223 221 220 223 225 231 234 235 236 230 225 293 247 266 267 275 282 284 277 267 277 281 248 268 248 272 296 317 281 276 310 228 220 237 250 272 277 315 322 311 325 287 272
228 227 222 220 228 221 217 221 222 226 231 230 246 234 233 245 264 253 253 265 260 265 274 285 293 273 224 227 253 273 265 267 273 267 219 203 219 236 249 257 263 283 279 274 260 259 323
222 223 226 222 221 226 223 222 225 222 226 230 239 243 239 256 264 260 251 249 253 255 255 268 305 212 229 231 249 235 250 248 273 270 280 285 267 243 238 255 268 308 266 238 270 301 306
214 218 223 226 224 222 221 222 222 219 216 221 235 243 247 254 254 268 236 241 242 244 252 241 236 239 218 250 230 287 262 261 280 281 284 273 267 273 280 272 300 300 296 287 286 287 291